Other Public Products
Issued by NWS Grand Forks, ND

Home | Current Version | Previous Version | Graphics & Text | Print | Product List | Glossary On
Versions: 1 2 3 4 5 6 7 8 9 10 11 12 13 14 15 16 17 18 19 20 21 22 23 24 25 26 27 28 29 30 31 32 33 34 35 36 37 38 39 40 41 42 43 44 45 46 47 48 49 50
000
FPUS83 KFGF 011131
OPUFGF
PRAIRIE TO PINES WEATHER ROUNDUP
NATIONAL WEATHER SERVICE EASTERN NORTH DAKOTA/GRAND FORKS ND
600 AM CDT FRI AUG 01 2014

 **SATELLITE DATA USED TO AUGMENT SKY COVER AT AUTOMATED STATIONS**
 *****  WEATHER ACROSS EASTERN NORTH DAKOTA  *****

CITY           SKY/WX    TMP DP  RH WIND       PRES   REMARKS
GRAND FORKS    PTCLDY    58  57  97 NW3       30.04R
GRAND FORKS AF CLEAR     60  60 100 W6        30.05S
GRAND CITY NWS   N/A     59 N/A N/A N3          N/A
BUXTON           N/A     63  62  98 NW5         N/A
DEVILS LAKE    CLEAR     61  54  77 CALM      30.06S
FARGO          CLEAR     60  57  89 W3        30.03S
WAHPETON ARPT  SUNNY     57  54  88 W3        30.05S
$$

 *****  WEATHER ACROSS CENTRAL AND WESTERN NORTH DAKOTA  *****

CITY           SKY/WX    TMP DP  RH WIND       PRES   REMARKS
JAMESTOWN      PTCLDY    60  56  86 W3        30.07R
BISMARCK       CLEAR     58  55  90 NE7       30.07S
MINOT          CLEAR     56  54  93 CALM      30.06S
MINOT AFB      CLEAR     55  54  99 NE3       30.06S
GARRISON         N/A     57  54  89 NE3       30.06F
WILLISTON      PTCLDY    66  57  72 VRB3      30.03F
DICKINSON      CLEAR     57  53  86 S8        30.03F
HETTINGER      CLEAR     54  51  90 CALM      30.07F
$$

 *****  OTHER OBSERVATIONS NORTHEAST NORTH DAKOTA  *****

CITY           SKY/WX    TMP DP  RH WIND       PRES   REMARKS
WALHALLA         N/A     55  55 100 SW3         N/A
LANGDON        FAIR      50  48  93 CALM      30.08S FOG
CAVALIER       FAIR      57  55  94 W3        30.05S
GRAFTON        FAIR      57  57 100 NW5       30.05S FOG
CANDO          FAIR      54  54 100 N3        30.09S FOG
FORT TOTTEN    NOT AVBL
ROLLA          FAIR      50  50 100 W3        30.10S
RUGBY          FAIR      57  57 100 E8        30.07S FOG
 ***** THE ABOVE OBSERVATIONS ARE NON NWS ARE NOT QUALITY
        CONTROLLED AND MAY MIS-REPORT RAIN FOR SNOW...
$$

 *****  OTHER OBSERVATIONS SOUTHEAST NORTH DAKOTA *****

CITY           SKY/WX    TMP DP  RH WIND       PRES   REMARKS
COOPERSTOWN    NOT AVBL
VALLEY CITY    FAIR      55  55 100 CALM      30.07S
OAKES          NOT AVBL
GWINNER        SUNNY     61  61 100 W7        30.08R
SHEYENNE NWR     N/A     57  56  98 W3        29.95S
BUFFALO          N/A     58  55  89 N6          N/A
WYNDMERE       NOT AVBL
 ***** THE ABOVE OBSERVATIONS ARE NON NWS ARE NOT QUALITY
       CONTROLLED AND MAY MIS-REPORT RAIN FOR SNOW...
$$

  *****  WEATHER ACROSS NORTHERN MINNESOTA  *****

CITY           SKY/WX    TMP DP  RH WIND       PRES   REMARKS
FLAG ISLAND    CLEAR     64  59  82 NE5       30.02R
WARROAD        CLEAR     54  48  82 CALM      30.04R
ROSEAU         CLEAR     54  48  82 NW3       30.05R
HALLOCK        CLEAR     55  54  94 CALM      30.05R FOG
THF RVR FALLS  CLEAR     57  57 100 CALM      30.06R
HALSTAD          N/A     55  54  96 CALM        N/A
FOSSTON        MOCLDY    54  52  94 CALM      30.06R FOG
BAUDETTE       PTCLDY    54  53  97 CALM      30.04R FOG
WASKISH        FOG       52  52 100 CALM      30.03R VSB 3/4
CROOKSTON      FOG       57  57 100 N5        30.05S VSB<1/4
$$
  *****  WEATHER ACROSS CENTRAL AND WEST MINNESOTA  *****

CITY           SKY/WX    TMP DP  RH WIND       PRES   REMARKS
BEMIDJI        CLEAR     56  55  95 W3        30.05R
PARK RAPIDS    MOCLDY    58  56  93 CALM      30.05R
WADENA         LGT RAIN  61  59  94 CALM      30.06R
DETROIT LAKES  PTCLDY    64  63  94 CALM      30.07R FOG
MOORHEAD       CLEAR     61  61 100 CALM      30.05R
FERGUS FALLS   CLEAR     61  57  88 CALM      30.06R
ELBOW LAKE     FAIR      60  58  94 W3        30.06R
MORRIS MN      CLEAR     55  55 100 CALM      30.06R FOG
STAPLES        CLEAR     55  55 100 W1        30.06R
WHEATON        CLEAR     57  55  94 CALM      30.08R
$$
  *****  WEATHER ELSEWHERE ACROSS MINNESOTA  *****

CITY           SKY/WX    TMP DP  RH WIND       PRES   REMARKS
DULUTH         CLEAR     54  51  90 N3        30.04R
INTRNTL FALLS  FOG       47  46  97 CALM      30.03R VSB 3/4
ELY            CLEAR     45  45 100 CALM      30.06R FOG
CLOQUET        CLEAR     54  52  94 NW3       30.05R
BRAINERD       PTCLDY    53  53 100 CALM      30.05S FOG
HIBBING        PTCLDY    48  46  93 CALM      30.06R
ALEXANDRIA     PTCLDY    63  61  93 CALM      30.07R
SAINT CLOUD    FOG       59  55  88 CALM      30.05R VSB 1/4
MINNEAPOLIS    CLEAR     65  60  84 CALM      30.04R
$$

  *****  WEATHER ACROSS SOUTH DAKOTA  *****

CITY           SKY/WX    TMP DP  RH WIND       PRES   REMARKS
SIOUX FALLS    CLEAR     55  54  96 CALM      30.08R
BROOKINGS      NOT AVBL
WATERTOWN      CLEAR     55  53  93 CALM      30.09R
HURON          CLEAR     55  54  96 CALM      30.07R
SISSETON         N/A     58  57  97 CALM      30.05R
ABERDEEN       CLEAR     50  50 100 CALM      30.08R
MITCHELL       CLEAR     57  56  96 CALM      30.08R
PIERRE         PTCLDY    61  59  93 E6        30.04S
MOBRIDGE       CLEAR     60  55  83 E7        30.04F
RAPID CITY     CLEAR     61  49  64 SW5       30.10S
$$

  *****  SOME WEATHER IN NEARBY STATES *****

CITY           SKY/WX    TMP DP  RH WIND       PRES   REMARKS
GLASGOW MT     PTCLDY    66  57  72 E5        30.02S
GREAT FALLS MT CLEAR     53  44  71 W9        30.14R
CHEYENNE WY    CLEAR     51  46  83 W10       30.29F
SCOTTSBLUFF NE CLEAR     55  50  83 CALM      30.18S
OMAHA NE       PTCLDY    66  60  81 SE8       30.05S
DES MOINES IA  PTCLDY    63  60  90 CALM      30.07R
DAVENPORT IA   MOCLDY    66  57  72 S7        30.09R
CHICAGO IL     PTCLDY    63  57  81 W6        30.06S
EAU CLAIRE WI  CLEAR     62  61  96 SW5       30.03R
LA CROSSE WI   CLEAR     63  61  93 S5        30.04R
$$

  *****  SOME NATIONAL WEATHER *****

CITY           SKY/WX    TMP DP  RH WIND       PRES   REMARKS
LA GUARDIA NY  PTSUNNY   73  64  73 SW7       30.17S
RALEIGH NC     CLOUDY    70  67  90 NE8       30.13R FOG
ATLANTA GA     CLOUDY    68  65  90 NE13      30.07R
NEW ORLEANS LA MOCLDY    78  68  71 CALM      29.98R
OKLAHOMA CITY  MOCLDY    66  64  94 NW5       30.08R
ALBUQUERQUE NM PTCLDY    63  55  75 CALM      30.26S
SALT LAKE CITY PTCLDY    66  52  60 SE8       30.12S
LOS ANGELES CA MOCLDY    66  63  88 SW5       29.91S
BOISE ID       MOCLDY    69  49  48 SE6       30.09F
SEATTLE WA     CLOUDY    64  48  56 N5        30.04F
$$

*** WEATHER ACROSS MANITOBA...SASKATCHEWAN AND ONTARIO ***
                ***ONTARIO***

CITY           SKY/WX    TMP DP  RH WIND       PRES   REMARKS
GERALDTON      MOCLDY    50  50 100 N3        30.03
THUNDER BAY    MOCLDY    50  50 100 W5        30.03R
SIOUX LOOKOUT  MOCLDY    48  48 100 CALM      30.04R
TORONTO        CLEAR     64  57  77 SW5       30.08R
BIG TROUT LK   CLOUDY    52  48  87 NE3       30.04R
PICKLE LAKE    PTCLDY    50  48  93 SE6       30.02
DRYDEN         FOG       52  52 100 NE3       30.05R VSB 1/2
KENORA         MOCLDY    59  52  77 NE7       30.05S
$$
                *** MANITOBA***

CITY           SKY/WX    TMP DP  RH WIND       PRES   REMARKS
BRANDON        PTCLDY    54  54 100 N5        30.07F
DAUPHIN        CLEAR     57  55  94 W6        30.04S FOG
ISLAND LAKE    PTCLDY    55  52  88 CALM      30.05S
PILOT MOUND      N/A     54  54 100 SW3         N/A
THE PAS        CLOUDY    59  59 100 SE5       29.99F
THOMPSON       TSTM      61  61 100 E3        29.96F
WINNIPEG       PTCLDY    54  54 100 W5        30.06R
LYNN LAKE      PTCLDY    59  59 100 NW7       30.01S
CHURCHILL      PTCLDY    54  50  87 S10       29.97F
GILLAM         CLOUDY    50  50 100 S5        30.01F
$$
                ***SASKATCHEWAN***

CITY           SKY/WX    TMP DP  RH WIND       PRES   REMARKS
ESTEVAN        MOCLDY    57  55  94 E2        30.09R
KINDERSLEY     MOCLDY    57  57 100 NW6       30.09S
LLOYDMINSTER   LGT RAIN  61  59  94 NE13      30.13F
PRINCE ALBERT  MOCLDY    61  59  94 NW8       30.07R
REGINA         MOCLDY    61  57  88 E10       30.08S



USA.gov is the U.S. government's official web portal to all federal, state and local government web resources and services.